Terug naar catalogus

STARLINK-37686

ActiefCommunicatieVLEO
NORAD 69470·PAYLOAD·🇺🇸 United States

Gelanceerd Jun 8, 2026 vanaf Cape Canaveral Space Force Station

Loading…

Volgende Passages (komende 24 uur)

TLE

VersSource: CelesTrak SupGP

Epoch: Sep 15, 2026, 03:29 UTC

1 69470C 26127AD  26258.14562500 -.00042709  00000+0 -12621-2 0  2585
2 69470  53.1575 190.7909 0001294  82.7348 122.8964 15.34406758    13

Volg STARLINK-37686 in realtime met AllMySat

Download on the App Store